Volver al catálogo

SATCOM K2 R/B

PAM-D2

ActivoGTO
NORAD 16295·ROCKET BODY·🇺🇸 United States

Lanzado Nov 27, 1985 desde Cape Canaveral Space Force Station

Loading…

TLE

ObsoletoSource: Space-Track

Época: Sep 12, 2026, 05:03 UTC

1 16295U 85109H   26255.21071434  .00000298  00000-0  50939-3 0  9996
2 16295  26.6829 331.1165 7116032 329.9594   3.8982  2.42577849277979

Sigue SATCOM K2 R/B en tiempo real con AllMySat

Download on the App Store